NOAA 19

Last updated on Tue Jan 14 2025 00:02:17 GMT+0000 (Coordinated Universal Time)

1 33591U 09005A 25013.58815829 .00000283 00000+0 17519-3 0 9990 2 33591 99.0199 77.3397 0014521 61.3499 298.9131 14.13258338821081
UTC large
Height (km)
Speed (km/s)
/
Latitude / Longitude
Inclination (degrees)
Orbital Period (minutes)
Azimuth
Elevation
Range (km)
Doppler Factor

Next 0 passes for location: London (51.5072 / 0.1276)

Sorry there are no passes over London.